[[{"header":{"parameterUnit":"m.s-1","parameterCategory":1,"la1":30.2991,"la2":30.254,"lo1":-89.0895,"lo2":-89.0444,"dy":0.0017,"dx":0.0017,"nx":28,"ny":28,"refTime":"2025-02-27T03:00:00:Z","depth":0,"parameterNumber":2,"parameterNumberName":"U-component_of_WINDS"},"data":[0,0,0,0,0,0,0,0,0,0,0,0,0,0,0,0,0,0,0,0,0,0,0,0,0,0,0,0,0,0,0,0,0,0,0,0,0,0,0,0,0,0,0,0,0,0,0,0,0,0,0,0,0,0,0,0,0,0,-0.1185,-0.1186,0,-0.1196,-0.1196,-0.1196,-0.1202,-0.1202,-0.1203,-0.1203,-0.1213,-0.1213,-0.1214,0,0,0,0,0,0,0,0,0,0,0,0,0,-0.1173,-0.1173,-0.1185,-0.1186,-0.1186,-0.1196,-0.1196,-0.1196,-0.1202,-0.1202,-0.1203,-0.1203,-0.1213,-0.1213,-0.1214,0,0,0,0,0,0,0,0,0,0,0,0,0,-0.118,-0.1173,-0.1185,-0.119,-0.1191,-0.1196,-0.1196,-0.1196,-0.1202,-0.1202,-0.1203,-0.1203,-0.1213,-0.1213,-0.1214,-0.1215,0,0,-0.1215,-0.1215,0,0,0,0,0,0,0,0,-0.118,-0.118,-0.1189,-0.119,-0.119,-0.1198,-0.1195,-0.1202,-0.1202,-0.1198,-0.1203,-0.1203,-0.1208,-0.1209,-0.1211,-0.1215,-0.1216,-0.1215,-0.1215,-0.1215,-0.1215,0,0,0,0,0,0,0,-0.1179,-0.118,-0.1189,-0.1189,-0.119,-0.1192,-0.1193,-0.1196,-0.1203,-0.1198,-0.1199,-0.12,-0.1208,-0.121,-0.1211,-0.1216,-0.1215,-0.1215,-0.1215,-0.1216,-0.1222,-0.1222,0,0,0,0,0,0,-0.1178,-0.118,-0.1189,-0.119,-0.1185,-0.1192,-0.1193,-0.1195,-0.1202,-0.1204,-0.12,-0.12,-0.121,-0.121,-0.1211,-0.1213,-0.1215,-0.1216,-0.1216,-0.1222,-0.1222,-0.1222,0,0,0,0,0,0,-0.1177,-0.1179,-0.1189,-0.1185,-0.1186,-0.1192,-0.1194,-0.1196,-0.1197,-0.1204,-0.1205,-0.1201,-0.121,-0.1211,-0.1214,-0.1214,-0.1216,-0.1216,-0.1223,-0.1222,-0.1222,-0.1217,0,0,0,0,0,0,-0.1177,-0.1178,-0.1179,-0.1185,-0.1186,-0.1191,-0.1194,-0.1196,-0.1198,-0.1199,-0.1205,-0.1206,-0.121,-0.1213,-0.1214,-0.1214,-0.1216,-0.1223,-0.1223,-0.1222,-0.1217,-0.1217,-0.1216,0,0,0,0,0,-0.1177,-0.1177,-0.1179,-0.118,-0.1187,-0.1191,-0.1192,-0.1196,-0.1198,-0.1198,-0.1203,-0.1206,-0.1214,-0.1214,-0.1215,-0.1215,-0.1223,-0.1223,-0.1222,-0.1217,-0.1217,-0.1216,0,0,0,0,0,0,-0.117,-0.1177,-0.118,-0.1182,-0.1186,-0.1192,-0.1193,-0.1196,-0.1199,-0.12,-0.1205,-0.1207,-0.1209,-0.1212,-0.1212,-0.1216,-0.1219,-0.1219,-0.1214,-0.1214,-0.1213,-0.1213,-0.1217,0,0,0,0,0,-0.1169,-0.1171,-0.1178,-0.1179,-0.1181,-0.1186,-0.1188,-0.1192,-0.1196,-0.1198,-0.1202,-0.1206,-0.121,-0.1212,-0.1216,-0.1218,-0.1219,-0.1218,-0.1218,-0.1218,-0.1218,-0.122,-0.1219,-0.1222,-0.1222,-0.1222,0,0,-0.1166,-0.1171,-0.1172,-0.1178,-0.1181,-0.1184,-0.1188,-0.119,-0.1193,-0.1198,-0.1201,-0.1205,-0.121,-0.1213,-0.1214,-0.1215,-0.1217,-0.1218,-0.1217,-0.1217,-0.122,-0.1219,-0.1219,-0.1222,-0.1222,-0.1222,0,0,-0.1163,-0.1166,-0.1168,-0.1172,-0.1177,-0.1181,-0.1181,-0.1187,-0.119,-0.1193,-0.1198,-0.12,-0.1206,-0.121,-0.1213,-0.1212,-0.1215,-0.1213,-0.1211,-0.1212,-0.1212,-0.1212,-0.1212,-0.1212,-0.1213,-0.1213,-0.1213,0,-0.1159,-0.1163,-0.1168,-0.1171,-0.1174,-0.1179,-0.1181,-0.1184,-0.119,-0.1192,-0.1193,-0.1201,-0.1205,-0.1209,-0.1209,-0.1211,-0.1212,-0.1212,-0.1212,-0.1212,-0.1212,-0.1212,-0.1212,-0.1213,-0.1213,-0.1213,-0.1213,0,-0.1159,-0.1162,-0.1162,-0.1168,-0.1171,-0.1173,-0.1179,-0.1181,-0.1184,-0.1188,-0.1192,-0.1197,-0.1202,-0.1203,-0.1206,-0.1208,-0.1208,-0.1211,-0.1213,-0.1211,-0.1211,-0.1211,-0.1212,-0.1212,-0.1212,-0.1212,0,0,-0.1151,-0.116,-0.116,-0.1163,-0.117,-0.1172,-0.1175,-0.118,-0.1182,-0.1186,-0.1189,-0.1194,-0.1197,-0.12,-0.1203,-0.1205,-0.1205,-0.1207,-0.1207,-0.1207,-0.1207,-0.1206,-0.1205,-0.1207,-0.1207,-0.1207,-0.1207,0,-0.1149,-0.1154,-0.1159,-0.1162,-0.1165,-0.1171,-0.1173,-0.1178,-0.1181,-0.1185,-0.1189,-0.1193,-0.1196,-0.1198,-0.12,-0.1204,-0.1205,-0.1204,-0.121,-0.121,-0.1208,-0.1205,-0.1203,-0.1203,-0.1207,-0.1207,-0.1207,0,-0.1147,-0.1151,-0.1155,-0.1162,-0.1163,-0.1165,-0.117,-0.1173,-0.1179,-0.1182,-0.1186,-0.119,-0.1193,-0.1195,-0.1201,-0.12,-0.1203,-0.1205,-0.1206,-0.1206,-0.1208,-0.1206,-0.1203,-0.1203,-0.1207,-0.1207,-0.1207,0,-0.1141,-0.1148,-0.1151,-0.1154,-0.1162,-0.1163,-0.1166,-0.1172,-0.1175,-0.118,-0.1182,-0.1187,-0.1189,-0.1193,-0.1199,-0.12,-0.1204,-0.1206,-0.1207,-0.1207,-0.1207,-0.1207,-0.1205,-0.1209,-0.1209,-0.1209,-0.1209,0,-0.1139,-0.1141,-0.1149,-0.1151,-0.1153,-0.1159,-0.1162,-0.1166,-0.1171,-0.1174,-0.1179,-0.1182,-0.1189,-0.1193,-0.1197,-0.1202,-0.1203,-0.1205,-0.1206,-0.1205,-0.1205,-0.1207,-0.1207,-0.1209,-0.1209,-0.1209,-0.1209,0,-0.1133,-0.1138,-0.1142,-0.1149,-0.1151,-0.1153,-0.116,-0.1162,-0.1166,-0.117,-0.1172,-0.1179,-0.1183,-0.1189,-0.1196,-0.1199,-0.1203,-0.1205,-0.1201,-0.1202,-0.1202,-0.1202,-0.1201,-0.1201,-0.1205,-0.1205,-0.1205,0,-0.113,-0.1132,-0.114,-0.1142,-0.1146,-0.1149,-0.1152,-0.1159,-0.1162,-0.1168,-0.117,-0.1175,-0.118,-0.1188,-0.1194,-0.1199,-0.1201,-0.12,-0.1202,-0.12,-0.1201,-0.1201,-0.1201,-0.12,-0.12,-0.12,-0.12,0,-0.1126,-0.1129,-0.1133,-0.1138,-0.1142,-0.1146,-0.1151,-0.1152,-0.116,-0.1163,-0.1168,-0.1172,-0.1179,-0.1184,-0.119,-0.1194,-0.1198,-0.1199,-0.12,-0.1198,-0.1196,-0.1197,-0.12,-0.1199,-0.1199,-0.1199,-0.1199,-0.1199,-0.1122,-0.1124,-0.113,-0.1134,-0.1139,-0.1143,-0.1146,-0.1151,-0.1155,-0.1161,-0.1165,-0.117,-0.1176,-0.1185,-0.1189,-0.1193,-0.1195,-0.1195,-0.1195,-0.1195,-0.1195,-0.1195,-0.1195,-0.1195,-0.1195,-0.1195,-0.1195,0,-0.1118,-0.1122,-0.1126,-0.1133,-0.1136,-0.114,-0.1145,-0.1148,-0.1153,-0.1158,-0.1163,-0.1169,-0.1174,-0.1181,-0.1187,-0.1189,-0.1191,-0.1191,-0.1191,-0.1192,-0.1193,-0.1192,-0.1189,-0.1189,-0.1189,-0.1189,-0.1189,-0.1189,-0.1116,-0.112,-0.1124,-0.113,-0.1134,-0.1139,-0.1142,-0.1146,-0.1151,-0.1157,-0.1162,-0.1166,-0.1172,-0.1179,-0.1184,-0.1186,-0.1188,-0.1187,-0.1189,-0.1191,-0.1191,-0.1192,-0.1191,-0.1187,-0.1187,-0.1187,-0.1187,-0.1187]},{"header":{"parameterUnit":"m.s-1","parameterCategory":1,"la1":30.2991,"la2":30.254,"lo1":-89.0895,"lo2":-89.0444,"dy":0.0017,"dx":0.0017,"nx":28,"ny":28,"refTime":"2025-02-27T03:00:00:Z","depth":0,"parameterNumber":3,"parameterNumberName":"V-component_of_WINDS"},"data":[0,0,0,0,0,0,0,0,0,0,0,0,0,0,0,0,0,0,0,0,0,0,0,0,0,0,0,0,0,0,0,0,0,0,0,0,0,0,0,0,0,0,0,0,0,0,0,0,0,0,0,0,0,0,0,0,0,0,3.273,3.2729,0,3.2701,3.27,3.27,3.2645,3.2644,3.2643,3.2642,3.2615,3.2615,3.2615,0,0,0,0,0,0,0,0,0,0,0,0,0,3.274,3.274,3.273,3.2729,3.2729,3.2701,3.27,3.27,3.2645,3.2644,3.2642,3.2641,3.2615,3.2615,3.2615,0,0,0,0,0,0,0,0,0,0,0,0,0,3.2726,3.274,3.273,3.2698,3.2695,3.2701,3.27,3.27,3.2645,3.2644,3.2642,3.2641,3.2615,3.2615,3.2615,3.2651,0,0,3.2617,3.2617,0,0,0,0,0,0,0,0,3.2726,3.2725,3.2703,3.27,3.2697,3.2675,3.2694,3.2683,3.2646,3.2664,3.2642,3.264,3.2636,3.2635,3.2633,3.2649,3.2648,3.2617,3.2617,3.2617,3.2617,0,0,0,0,0,0,0,3.2728,3.2726,3.2718,3.2703,3.2699,3.2686,3.2682,3.2692,3.266,3.2662,3.2658,3.2656,3.2634,3.2633,3.2632,3.2648,3.2617,3.2617,3.2617,3.2618,3.2692,3.2694,0,0,0,0,0,0,3.2733,3.2727,3.2719,3.2717,3.2708,3.2687,3.2683,3.2683,3.2659,3.2654,3.2657,3.2653,3.2633,3.2631,3.2631,3.2671,3.2617,3.2618,3.2618,3.2691,3.2693,3.2695,0,0,0,0,0,0,3.2733,3.2733,3.272,3.2721,3.2719,3.2689,3.269,3.2684,3.2682,3.2655,3.265,3.2661,3.2631,3.263,3.2646,3.2669,3.2618,3.2618,3.2689,3.2691,3.2694,3.2752,0,0,0,0,0,0,3.2734,3.2733,3.2746,3.2722,3.2719,3.2736,3.2691,3.2684,3.2683,3.2677,3.2658,3.2653,3.263,3.2646,3.2647,3.2669,3.2619,3.2687,3.269,3.2693,3.2748,3.2756,3.2763,0,0,0,0,0,3.2734,3.2764,3.2747,3.2746,3.2734,3.2737,3.2735,3.2708,3.2685,3.2698,3.268,3.2654,3.2666,3.2648,3.2648,3.2671,3.2685,3.2689,3.2693,3.2744,3.2754,3.2763,0,0,0,0,0,0,3.2792,3.276,3.2741,3.2763,3.2753,3.2728,3.2743,3.2719,3.2716,3.2711,3.2678,3.2674,3.2695,3.2684,3.2664,3.2704,3.2671,3.2676,3.2711,3.272,3.2728,3.273,3.2619,0,0,0,0,0,3.2807,3.2811,3.2783,3.2806,3.2802,3.2773,3.2774,3.2753,3.2742,3.2738,3.2721,3.2712,3.2714,3.2716,3.2717,3.2746,3.2741,3.2762,3.2769,3.2776,3.278,3.2796,3.2805,3.2707,3.2707,3.2707,0,0,3.2839,3.2822,3.2827,3.2817,3.2807,3.2813,3.277,3.2779,3.2783,3.2739,3.2753,3.2741,3.2729,3.2751,3.2761,3.2744,3.2806,3.2781,3.2786,3.2787,3.2801,3.281,3.2818,3.271,3.271,3.2709,0,0,3.2899,3.2887,3.2904,3.2895,3.2879,3.286,3.2865,3.2843,3.2833,3.2846,3.2813,3.2819,3.2822,3.2815,3.2812,3.287,3.2846,3.2871,3.2912,3.2927,3.2935,3.2942,3.2963,3.2971,3.2875,3.2875,3.2875,0,3.2941,3.2948,3.2917,3.2927,3.2924,3.2883,3.2901,3.2894,3.288,3.288,3.286,3.2864,3.2853,3.2874,3.2888,3.2886,3.2891,3.2874,3.2936,3.2943,3.2948,3.2969,3.2977,3.2879,3.2878,3.2878,3.2878,0,3.3001,3.3006,3.3022,3.3009,3.3008,3.3022,3.2993,3.2996,3.2975,3.2959,3.2973,3.2958,3.2955,3.2958,3.2938,3.2976,3.2966,3.2942,3.2909,3.2961,3.298,3.2987,3.2883,3.2882,3.2881,3.288,0,0,3.3098,3.3066,3.3073,3.3067,3.3047,3.3051,3.3064,3.3059,3.3063,3.3055,3.3065,3.3069,3.3047,3.3043,3.3022,3.3035,3.3083,3.301,3.3009,3.3025,3.3126,3.3145,3.3154,3.3067,3.3068,3.3069,3.3127,0,3.3155,3.3174,3.3146,3.3172,3.3177,3.3138,3.3149,3.3139,3.3124,3.3127,3.311,3.3113,3.3083,3.3081,3.3092,3.3075,3.3104,3.3071,3.3077,3.3078,3.3083,3.3164,3.3184,3.3239,3.3134,3.3135,3.3136,0,3.3225,3.322,3.3246,3.3224,3.3225,3.3236,3.323,3.3233,3.322,3.3208,3.3204,3.3179,3.3191,3.3157,3.3174,3.3152,3.3153,3.3145,3.3147,3.3147,3.3111,3.3168,3.3256,3.3265,3.3147,3.3146,3.3145,0,3.3295,3.3294,3.3309,3.3305,3.328,3.3288,3.3279,3.3264,3.3264,3.3259,3.3258,3.3255,3.3254,3.3253,3.3228,3.3205,3.3248,3.3212,3.3239,3.324,3.3251,3.325,3.3342,3.325,3.3249,3.3249,3.3249,0,3.3363,3.3381,3.334,3.335,3.3369,3.3337,3.3357,3.3343,3.3331,3.3338,3.3304,3.3312,3.3278,3.3282,3.3262,3.328,3.3279,3.327,3.3265,3.3274,3.3275,3.3275,3.3271,3.3251,3.3251,3.3251,3.325,0,3.3445,3.3418,3.3433,3.3407,3.3401,3.3417,3.3396,3.3404,3.3386,3.3396,3.3396,3.3369,3.3372,3.3346,3.3345,3.3332,3.3359,3.3346,3.3363,3.3359,3.3388,3.3386,3.3484,3.3495,3.3395,3.3396,3.3397,0,3.349,3.3503,3.3479,3.3481,3.3472,3.3476,3.3475,3.3443,3.3444,3.343,3.3441,3.3441,3.344,3.3447,3.3427,3.3426,3.3414,3.3448,3.3414,3.3423,3.3416,3.3416,3.3418,3.3456,3.3457,3.3458,3.3459,0,3.3574,3.3561,3.356,3.3555,3.3554,3.3549,3.3541,3.3545,3.3511,3.3513,3.3516,3.3514,3.3513,3.3514,3.3509,3.35,3.3475,3.347,3.3476,3.3486,3.3496,3.3492,3.3384,3.3468,3.3467,3.3467,3.3466,3.3466,3.364,3.365,3.3634,3.3635,3.3625,3.3619,3.3626,3.3608,3.361,3.3605,3.3586,3.3592,3.358,3.357,3.3564,3.3569,3.3552,3.3561,3.3564,3.3567,3.3573,3.3494,3.3567,3.3567,3.3567,3.3567,3.3566,0,3.3724,3.3711,3.3712,3.3702,3.3703,3.3677,3.3668,3.367,3.3675,3.3665,3.3664,3.3668,3.3668,3.3649,3.3647,3.3655,3.3643,3.3656,3.3656,3.3654,3.3587,3.3582,3.3665,3.3665,3.3665,3.3665,3.3665,3.3665,3.3767,3.3782,3.3767,3.3777,3.3765,3.377,3.3766,3.3761,3.3753,3.3757,3.3757,3.3744,3.373,3.3727,3.3728,3.3722,3.3723,3.374,3.3731,3.3668,3.3659,3.365,3.3645,3.374,3.374,3.3798,3.3798,3.3799]}]]